Location: Unspecified
(0.0000°N, 0.0000°E)
Time: 05:06:19
(UTC+00:00)

FENGYUN 1C DEB - Pass Details

Date: 23 February 2026
Orbit: 775 x 802 km, 98.9° (Epoch: 9 April)

Event Time Altitude Azimuth Distance (km) Brightness Sun altitude
Rises 04:05:37 0° 160° (SSE) 3,207 ? -31.4°
Reaches altitude 10° 04:07:56 10° 156° (SSE) 2,284 ? -30.9°
Maximum altitude 04:12:53 59° 77° (ENE) 871 ? -29.6°
Enters shadow 04:13:11 58° 60° (ENE) 881 ? -29.6°
